Find OneWeb SL0499

NORAD ID: 54117 Int'l Des: 2022-138 Owner: ONEWEBN Country: UK Constellation: oneweb operational
又名: ONEWEB-0499 spacetrack, celestrak
LEOCIRCULARPOLARONEWEB_TYPE

当前视图

正在加载3D地球...

About OneWeb SL0499

OneWeb SL0499 (NORAD 54117) is a oneweb constellation satellite launched Oct 22, 2022 by ONEWEBN of UK. It operates in LEO, CIRCULAR, POLAR, ONEWEB_TYPE orbit with a mass of 148.00 kg.

即将过境

Passes for default location (London). Set your location on the main map for personalized predictions.

高度历史

Loading altitude history...

两行轨道根数

1 54117U 22138E 26238.56759700 .00000015 00000-0 57274-5 0 9990
2 54117 87.9145 290.9564 0002265 95.6647 264.4745 13.19726354186100
Epoch: Aug 26, 2026 • Age: 9 hours

当前状态

高度 1216.2 km
远地点 / 近地点 N/A
速度 7.24 km/s
星下点 -85.65°S, 169.55°W
发射日期 Oct 22, 2022
运行时间 3.8 years
类型 internet

技术详情

分类 Payload
质量 148.00 kg
干质量 140.00 kg
总质量 148.00 kg
长度 1.30 m
直径 1.00 m
跨度 5.00 m
形状 Trapezoid+2 pan
制造商 ONEWUS
平台类型 ARROW
阶段状态 In Orbit
所有者/国家 ONEWEBN/UK

Most Searched